Showing default

CONNECTA IOT-8, 62695

Orbit data source: Space-Track

CONNECTA IOT-8, 62695 is a payload satellite owned by Plan-S (TR) in SSO that was launched on Tue, 14 Jan 2025 UTC via an FALCON 9 launch vehicle from the Air Force Western Test Range (AFWTR). Payload-class satellites include a variety of spacecraft equipped with specific instruments for various scientific and technological missions. These include communications satellites like Starlink; space stations such as the ISS; scientific satellites like the Hubble; Earth observation satellites from companies like Planet Labs, Umbra, and HawkEye 360; GPS; miniature CubeSats for education and research; and military/defense satellites.

Loading next visibility...
Identifier
62695, 2025-009CQ
Orbit
SSO
Country
Flag of UnknownUnknown / TURK
Related business
Manufacturer
Plan-S
Mission
Operational Commercial Communications
Bus & Motor
CUBESAT 6U, Unknown motor
Mass
10 kg wet, 10 kg dry
Launch date (UTC)
2025-01-14 (1 year ago)
Launch vehicle
FALCON 9
Launch site
Air Force Western Test Range (AFWTR)
Object type
Payload
Rocket body
Debris
Shape & HBR
Box, 2.2 m
Radar Cross Section
0.080 m², Medium (>0.1 m² and < 1m²)

Expand to show TLE details & history
Last TLE update: 9 hours ago

TLE from 9 hours ago
0 CONNECTA IOT-8
1 62695U 25009CQ  26038.15193734  .00001812  00000-0  18149-3 0  9994
2 62695  97.7184 118.5855 0003885  82.1927 277.9733 14.92609387 57898
Epoch: 2026-02-07T03:38Z
TLE epoch observation values (Epoch: 2026-02-07T03:38:47.386Z)
Latitude
-0.00003°
Longitude
-73.39151°
Altitude
592.472 km
Speed
7.564 km/s
True Right ascension
07h 54m 20s
True Declination
0° 00' 00"
Sunlit
Object was in full shadow at epoch
Visualization orbit readout
Latitude
Unknown
Longitude
Unknown
Altitude
Unknown
Speed
Unknown
Apparent Right ascension
Unknown
Apparent Declination
Unknown
Sunlit
N/A
Visualization observer readout
Local Sidereal Time
14:23:02
Azimuth
Unknown
Elevation
Unknown
Doppler factor
Unknown
Orbital elements
Apogee altitude
589.525 km
Perigee altitude
584.113 km
Semi-major axis
6,964.956 km
Eccentricity
0.00039
Inclination
97.7184°
RAAN
118.5855°
Arg. of periapsis
82.1927°
True anomaly
277.92921°
Mean anomaly
277.9733°
Eccentric anomaly
277.95125°
Mean motion
3.73393 °/min
Orbital period
96.41 mins
BSTAR
0.00018149
Loading maneuver chart data...
Computing Atmospheric mass density...
Loading historical data...
Loading historical data...
Loading historical data...
Loading historical data...
Loading historical data...
Loading historical data...
Loading historical data...

Documentation

Showing up to 5 results
|